Hourly Data Report for October 25, 2015

All times are specified in Local Standard Time (LST). Add 1 hour to adjust for Daylight Saving Time where and when it is observed.

KITCHENER/WATERLOO
ONTARIO

43°27'39.000" N
80°22'43.000" W
321.60 m
6144239
71368
YKF

Download Data

Hourly Data (October 2015)
Hourly Data Report for October 25, 2015
Temp Definition
°C
Dew Point Temp Definition
°C
Rel Hum Definition
%
Wind Dir Definition
10's deg

Wind Spd Definition
km/h
Visibility Definition
km
Stn Press Definition
kPa
Hmdx Definition


Wind Chill Definition


Weather Definition


TIME
00:00 Legend Double Dagger 11.6 10.2 91 30 26 16.1 97.21     LegendNANA
01:00 Legend Double Dagger 10.1 8.7 91 29 37 12.9 97.36     LegendNANA
02:00 Legend Double Dagger 9.7 7.7 87 29 30 16.1 97.48     LegendNANA
03:00 Legend Double Dagger 8.7 6.6 86 30 34 16.1 97.61     LegendNANA
04:00 Legend Double Dagger 8.1 6.1 87 29 28 16.1 97.70     LegendNANA
05:00 Legend Double Dagger 7.7 6.5 92 29 22 16.1 97.81     Rain
06:00 Legend Double Dagger 7.7 4.9 83 31 24 16.1 97.96     LegendNANA
07:00 Legend Double Dagger 7.7 3.2 73 31 30 16.1 98.07     LegendNANA
08:00 Legend Double Dagger 7.9 4.5 79 31 22 16.1 98.19     LegendNANA
09:00 Legend Double Dagger 8.5 4.2 74 31 13 16.1 98.33     LegendNANA
10:00 Legend Double Dagger 10.2 4.6 68 33 18 16.1 98.39     LegendNANA
11:00 Legend Double Dagger 10.5 4.0 64 32 22 16.1 98.47     LegendNANA
12:00 Legend Double Dagger 11.6 3.5 57 30 24 16.1 98.52     LegendNANA
13:00 Legend Double Dagger 12.2 3.9 57 29 26 16.1 98.51     LegendNANA
14:00 Legend Double Dagger 12.0 3.1 54 30 24 16.1 98.53     LegendNANA
15:00 Legend Double Dagger 11.7 3.0 55 29 24 16.1 98.55     LegendNANA
16:00 Legend Double Dagger 9.9 3.1 62 31 22 16.1 98.64     LegendNANA
17:00 Legend Double Dagger 8.3 3.0 69 33 18 16.1 98.72     LegendNANA
18:00 Legend Double Dagger 6.5 2.7 76 31 11 16.1 98.83     LegendNANA
19:00 Legend Double Dagger 3.8 1.9 88 29 5 16.1 98.89     LegendNANA
20:00 Legend Double Dagger 3.6 1.8 88 29 9 16.1 98.95     LegendNANA
21:00 Legend Double Dagger 2.8 2.1 95 32 5 16.1 98.99     LegendNANA
22:00 Legend Double Dagger 2.2 1.6 96 LegendMM 4 16.1 98.98     LegendNANA
23:00 Legend Double Dagger 1.0 0.7 98   0 16.1 98.98     LegendNANA

Notes on Data Quality.

Legend

  • E = Estimated
  • M = Missing
  • NA = Not Available
  • ‡ = Partner data that is not subject to review by the National Climate Archives
Date modified: